Change the Weather History Date:

Monday, November 5, 2012

  Actual Average (KTAD) Record (KTAD)
Temperature  
Mean Temperature 45 °F 45 °F  
Max Temperature 60 °F 61 °F 76 °F (1977)
Min Temperature 30 °F 30 °F 2 °F (1959)
Degree Days  
Heating Degree Days 20 20  
Month to date heating degree days 94  
Since 1 July heating degree days 595  
Cooling Degree Days 0 0  
Month to date cooling degree days 0  
Year to date cooling degree days 719  
Moisture  
Dew Point 21 °F    
Average Humidity 42    
Maximum Humidity 64    
Minimum Humidity 23    
Precipitation  
Precipitation 0.00 in 0.03 in 0.23 in (1951)
Month to date precipitation 0.15  
Year to date precipitation 12.75  
Sea Level Pressure  
Sea Level Pressure 30.18 in    
Wind  
Wind Speed 8 mph (NNE)    
Max Wind Speed 13 mph    
Max Gust Speed -    
Visibility 10 miles    
Events      
T = Trace of Precipitation, MM = Missing Value Source: NWS Daily Summary

Daily Weather History Graph

Daily Weather History Graph

Search for Another Location

Airport or City:

Trip Planner

Search our weather history database for the weather conditions in past years. The results will help you decide how hot, cold, wet, or windy it might be!

Date:

Astronomy

Nov. 05, 2012 Rise Set
Actual Time 6:26 AM MST 4:56 PM MST
Civil Twilight 5:59 AM MST 5:23 PM MST
Nautical Twilight 5:28 AM MST 5:54 PM MST
Astronomical Twilight 4:58 AM MST 6:24 PM MST
Moon 10:36 PM MST (11/5) 11:46 AM MST (11/5)
Length of Visible Light 11h 24m
Length of Day
10h 30m
Waning Gibbous, 62% of the Moon is Illuminated
Nov 5
Waning Gibbous
Nov 6
Last Quarter
Nov 13
New
Nov 20
First Quarter
Nov 28
Full

Hourly Weather History & Observations

Time (MST) Temp. Windchill Dew Point Humidity Pressure Visibility Wind Dir Wind Speed Gust Speed Precip Events Conditions
12:53 AM 42.1 °F 35.2 °F 21.0 °F 43% 30.19 in 10.0 mi NNW 12.7 mph - N/A   Clear
1:53 AM 39.0 °F 31.8 °F 21.0 °F 49% 30.18 in 10.0 mi NNW 11.5 mph - N/A   Clear
2:53 AM 39.0 °F 32.8 °F 21.0 °F 49% 30.16 in 10.0 mi NNW 9.2 mph - N/A   Clear
3:53 AM 33.1 °F 27.7 °F 19.0 °F 56% 30.18 in 10.0 mi ENE 5.8 mph - N/A   Clear
4:53 AM 33.1 °F 26.1 °F 19.0 °F 56% 30.21 in 10.0 mi NE 8.1 mph - N/A   Clear
5:53 AM 32.0 °F 27.5 °F 19.0 °F 59% 30.23 in 10.0 mi East 4.6 mph - N/A   Clear
6:53 AM 30.0 °F 24.1 °F 19.0 °F 64% 30.28 in 10.0 mi North 5.8 mph - N/A   Clear
7:53 AM 37.9 °F 33.5 °F 21.0 °F 51% 30.28 in 10.0 mi ENE 5.8 mph - N/A   Clear
8:53 AM 46.0 °F 44.8 °F 23.0 °F 40% 30.24 in 10.0 mi Variable 3.5 mph - N/A   Clear
9:53 AM 50.0 °F - 23.0 °F 35% 30.23 in 10.0 mi SSW 3.5 mph - N/A   Clear
10:53 AM 54.0 °F - 24.1 °F 31% 30.20 in - SSW 9.2 mph - N/A   Clear
11:53 AM 55.0 °F - 23.0 °F 29% 30.15 in 10.0 mi SSW 10.4 mph - N/A   Clear
12:53 PM 57.9 °F - 21.9 °F 25% 30.12 in 10.0 mi South 9.2 mph - N/A   Clear
1:53 PM 60.1 °F - 21.9 °F 23% 30.10 in 10.0 mi Variable 3.5 mph - N/A   Clear
2:53 PM 59.0 °F - 21.9 °F 24% 30.11 in 10.0 mi Variable 4.6 mph - N/A   Clear
3:53 PM 59.0 °F - 21.9 °F 24% 30.12 in 10.0 mi Calm Calm - N/A   Clear
4:53 PM 55.0 °F - 21.9 °F 28% 30.14 in 10.0 mi WNW 3.5 mph - N/A   Clear
5:53 PM 48.0 °F - 21.9 °F 36% 30.18 in 10.0 mi NNW 8.1 mph - N/A   Clear
6:53 PM 48.0 °F - 21.9 °F 36% 30.19 in 10.0 mi South 3.5 mph - N/A   Clear
7:53 PM 42.1 °F 39.2 °F 21.0 °F 43% 30.20 in 10.0 mi North 4.6 mph - N/A   Clear
8:53 PM 42.1 °F 38.4 °F 21.9 °F 45% 30.17 in 10.0 mi NNE 5.8 mph - N/A   Clear
9:53 PM 37.9 °F 33.5 °F 21.0 °F 51% 30.16 in 10.0 mi NE 5.8 mph - N/A   Clear
10:53 PM 37.9 °F 32.7 °F 19.9 °F 48% 30.16 in 10.0 mi NE 6.9 mph - N/A   Clear
11:53 PM 36.0 °F 30.3 °F 19.9 °F 52% 30.16 in 10.0 mi NE 6.9 mph - N/A   Clear